Regional Weather Roundup
Issued by NWS

Home | Current Version | Previous Version | Text Only | Print | Product List | Glossary Off
Versions: 1 2 3 4 5 6 7 8 9 10 11 12 13 14 15 16 17 18 19 20 21 22 23 24 25 26 27 28 29 30 31 32 33 34 35 36 37 38 39 40 41 42 43 44 45 46 47 48 49 50

000
ASUS45 KBOU 252307
RWRCO

WEATHER ROUNDUP FOR COLORADO
NATIONAL WEATHER SERVICE DENVER/BOULDER CO
500 PM MDT SAT APR 25 2015

NOTE: "FAIR" INDICATES FEW OR NO CLOUDS BELOW 12000 FEET WITH NO
SIGNIFICANT WEATHER AND/OR OBSTRUCTIONS TO VISIBILITY.

COZ001>005-013-030-031-260000-
...NORTHWEST COLORADO...

CITY           SKY/WX    TMP DP  RH WIND       PRES   REMARKS
CRAIG          PTSUNNY   56  33  42 NE7       29.76F
HAYDEN         PTSUNNY   52  30  43 N6        29.78S
MEEKER         PTSUNNY   55  31  39 CALM      29.76F
MOUNT WERNER   NOT AVBL
STEAMBOAT SPGS MOSUNNY   53  31  44 E3        29.78S
WALDEN         PTSUNNY   50  19  29 SW12G18   29.81S
$$

COZ006>008-011-260000-
...WEST CENTRAL VALLEYS...

CITY           SKY/WX    TMP DP  RH WIND       PRES   REMARKS
GRAND JUNCTION CLOUDY    51  45  79 SE3       29.76R
MONTROSE       LGT RAIN  50  43  77 NW9       29.78F
EAGLE          PTSUNNY   55  34  44 SW16      29.79F
RIFLE          CLOUDY    53  36  52 CALM      29.76F
DELTA          NOT AVBL
NUCLA          NOT AVBL
$$

COZ017>023-064>068-260000-
...SOUTHWEST COLORADO...

CITY           SKY/WX    TMP DP  RH WIND       PRES   REMARKS
DURANGO        CLOUDY    51  37  58 E10       29.82F
CORTEZ         MOSUNNY   60  35  39 S12       29.77F
PAGOSA SPRINGS CLOUDY    51  32  48 S6        29.87S
TELLURIDE      CLOUDY    46  28  49 S13G20    29.87S THUNDER
WOLF CREEK PAS NOT AVBL
$$

COZ009-010-012-014-032>034-037-058>063-260000-
...CENTRAL COLORADO...

CITY           SKY/WX    TMP DP  RH WIND       PRES   REMARKS
ASPEN          PTSUNNY   49  34  56 N14       29.79F
BUENA VISTA    RAIN      48  32  54 SE12G24   29.81S
COPPER MTN     PTSUNNY   34  28  80 W3        29.95R
BERTHOUD PASS  SNOW      25  18  74 NW5       29.99S VSB 1/4 WCI  19
COTTONWOOD PAS CLOUDY    45  27  49 CALM      29.88S
GUNNISON       MOSUNNY   52  30  43 E9        29.83F
KREMMLING      PTSUNNY   52  32  46 E10       29.81F
LEADVILLE      CLOUDY    40  22  48 W6        29.85R
SALIDA         PTSUNNY   55  30  39 W6        29.87F
SUNLIGHT       CLOUDY    36  32  87 CALM      29.94S
WILKERSON PASS PTSUNNY   41  21  45 SW5       29.95S
$$

COZ069>075-260000-
...SAN LUIS VALLEY/SANGRE DE CRISTO MOUNTAINS...

CITY           SKY/WX    TMP DP  RH WIND       PRES   REMARKS
ALAMOSA        PTSUNNY   60  24  25 S21G31    29.78F
LA VETA PASS   MOSUNNY   48  23  37 S8G17     29.91S
SAGUACHE       PTSUNNY   54  27  35 CALM      29.80F
$$

COZ035-036-038>040-260000-
...NORTHERN COLORADO FRONT RANGE...

CITY           SKY/WX    TMP DP  RH WIND       PRES   REMARKS
DENVER INTL AP CLOUDY    62  33  33 NE10      29.69F
DMNS CITY PARK   N/A     63  30  28 NW6G14    29.70R
AURORA         NOT AVBL
FRONT RANGE AP NOT AVBL
ERIE MUNI ARPT CLOUDY    64  31  28 SE5       29.71R
BOULDER MUN AP PTSUNNY   61  32  33 N6        29.70S
CENTENNIAL     LGT RAIN  55  35  47 S17G25    29.75R
BROOMFIELD     PTSUNNY   63  32  31 NE9       29.73
FORT COLLINS   CLOUDY    64  36  34 NW12      29.72S
LONGMONT       CLOUDY    66  34  31 NW6       29.72R
$$

COZ041-046-047-076>085-087-088-260000-
...PIKES PEAK/PALMER DIVIDE AND SOUTHERN FOOTHILLS...

CITY           SKY/WX    TMP DP  RH WIND       PRES   REMARKS
COLO. SPRINGS  CLOUDY    61  26  26 SE9       29.75R
A. F. ACADEMY  NOT AVBL
ELLICOTT       CLOUDY   N/A N/A N/A NW8       29.72F
FALCON         CLOUDY    58  24  26 SE7       29.78F
FORT CARSON    NOT AVBL
LIMON          PTSUNNY   65  21  18 S12       29.70S
MONUMENT HILL  PTSUNNY   54  30  40 SE12      29.77R
TRINIDAD       PTSUNNY   68  25  19 S15       29.68S
$$

COZ042>045-048>051-090-091-260000-
...NORTHEAST COLORADO...

CITY           SKY/WX    TMP DP  RH WIND       PRES   REMARKS
GREELEY ARPT   CLOUDY    64  30  27 N6G22     29.70R
AKRON          PTSUNNY   69  35  28 E12G21    29.69S
BURLINGTON     MOSUNNY   70  36  28 E9        29.71S
WRAY           SUNNY     72  38  28 E8        29.69S
STERLING       PTSUNNY   70  41  35 E10G16    29.66F
HOLYOKE        SUNNY     70  41  35 E6        29.69S
FORT MORGAN    PTSUNNY   69  30  23 E12       29.68S
$$

COZ086-089-092>099-260000-
...SOUTHEAST COLORADO...

CITY           SKY/WX    TMP DP  RH WIND       PRES   REMARKS
PUEBLO         PTSUNNY   72  19  13 N8        29.63F
LA JUNTA       MOSUNNY   77  24  14 SE15      29.63F
LAMAR          MOSUNNY   77  28  16 SE10      29.63S
SPRINGFIELD      N/A     70  28  21 SE14      29.67S
$$


USA.gov is the U.S. government's official web portal to all federal, state and local government web resources and services.